This demonstration page uses our WeatherBlox Daily Observations layout. Learn more.

39.92423, -83.80882

Hourly Observations for June 12, 2016

Temp ( °F °C ) Dew Point ( °F °C ) Humidity (%) Winds ( mph kmh ) Pressure ( in mb ) Visibility ( mi km ) Precip ( " mm )
12:56 am 00:56 Mostly Cloudy 79 26.1 64 17.7 60 60 WSW 9 15 29.99 1016 10 16.0934 0 0
1:56 am 01:56 Clear 78 25.5 65 18.3 64 64 SW 12 19 29.99 1016 10 16.0934 0 0
2:56 am 02:56 Clear 77 25 64 17.7 64 64 W 8 13 29.99 1016 10 16.0934 0 0
3:56 am 03:56 Mostly Clear 75 23.8 64 17.7 69 69 WSW 9 15 29.98 1015 10 16.0934 0 0
4:56 am 04:56 Clear 74 23.3 65 18.3 74 74 WSW 9 15 29.98 1015 10 16.0934 0 0
5:56 am 05:56 Mostly Cloudy 74 23.3 65 18.3 74 74 WSW 8 13 29.99 1016 10 16.0934 0 0
6:56 am 06:56 Partly Cloudy 74 23.3 66 18.8 76 76 WSW 8 13 30.01 1016 10 16.0934 0 0
7:56 am 07:56 Sunny 76 24.4 67 19.4 74 74 W 8 13 30.01 1016 10 16.0934 0 0
8:56 am 08:56 Sunny 79 26.1 69 20.5 71 71 WNW 9 15 30.01 1016 10 16.0934 0 0
9:56 am 09:56 Sunny 82 27.7 70 21.1 67 67 VRB 6 9 30.03 1017 10 16.0934 0 0
10:56 am 10:56 Sunny 84 28.8 70 21.1 63 63 NW 10 17 30.03 1017 10 16.0934 0 0
11:56 am 11:56 Mostly Sunny 85 29.4 70 21.1 61 61 WNW 10 17 30.04 1017 10 16.0934 0 0
12:56 pm 12:56 Sunny 87 30.5 69 20.5 55 55 NNW 12 19 30.02 1017 10 16.0934 0 0
1:56 pm 13:56 Sunny 87 30.5 65 18.3 48 48 NW 8 13 30.02 1017 10 16.0934 0 0
2:56 pm 14:56 Sunny 87 30.5 63 17.2 45 45 NW 13 20 30.02 1017 10 16.0934 0 0
3:56 pm 15:56 Sunny 88 31.1 60 15.5 39 39 NNW 9 15 30.01 1016 10 16.0934 0 0
4:56 pm 16:56 Sunny 87 30.5 54 12.2 32 32 WNW 14 22 30 1016 10 16.0934 0 0
5:56 pm 17:56 Sunny 85 29.4 44 6.6 24 24 N 10 17 30.01 1016 10 16.0934 0 0
6:56 pm 18:56 Sunny 84 28.8 43 6.1 24 24 NNW 10 17 30.01 1016 10 16.0934 0 0
7:56 pm 19:56 Sunny 78 25.5 45 7.2 31 31 NNW 7 11 30.03 1017 10 16.0934 0 0
8:56 pm 20:56 Sunny 73 22.7 46 7.7 38 38 N 7 11 30.03 1017 10 16.0934 0 0
9:56 pm 21:56 Clear 70 21.1 45 7.2 41 41 N 6 9 30.05 1018 10 16.0934 0 0
10:56 pm 22:56 Clear 66 18.8 47 8.3 51 51 N 3 6 30.06 1018 10 16.0934 0 0
11:56 pm 23:56 Clear 64 17.7 49 9.4 58 58 N 3 6 30.05 1018 10 16.0934 0 0

Powered by AerisWeather